{"data":{"norad_id":61714,"intl_designator":"2024-196H","name":"STARLINK-32440","alt_names":[],"object_type":"PAYLOAD","status":"ACTIVE","operator":null,"country":"US","launch_date":"2024-10-30","launch_site_code":"AFETR","launch_vehicle":null,"mission":null,"orbit_class":"UNKNOWN","rcs_meters":null,"size_class":null,"mass_kg":null,"dimensions":null,"purposes":["comms"],"wikipedia_slug":null,"has_3d_model":false,"image_url":null,"decayed_at":null,"tle_current":{"epoch":"2026-09-21T17:15:56.684448Z","epoch_age_seconds":83542,"freshness":"FRESH","line1":"1 61714U 24196H   26264.71940607  .00000790  00000+0  34506-4 0  9992","line2":"2 61714  53.1596 267.6831 0001181  94.7531 265.3607 15.34395632107214","mean_motion":15.34395632,"eccentricity":0.0001181,"inclination_deg":53.1596,"raan_deg":267.6831,"arg_perigee_deg":94.7531,"mean_anomaly_deg":265.3607,"bstar":3.4506e-5,"rev_number":10721,"period_min":93.848025239947,"perigee_km":461.9083180888,"apogee_km":463.52412762004,"semimajor_km":6840.8532228544,"source":"CELESTRAK","updated_at":"2026-09-22T09:00:49.411155Z"}}}